GW1707 Weather Reports


time (UTC)temp
C
wind
direction
speed
KPH
gust
KPH
rain 1hr
cm
rain 24hr
cm
rain mn
cm
humidity
%
barometer
mb
20260504210106 8 0 0.0 0.0 0.00 0.84 0.00 97 1023.2
20260504204605 8 0 0.0 0.0 0.00 0.84 0.00 97 1023.2
20260504203104 8 0 0.0 0.0 0.00 0.84 0.00 97 1023.1
20260504201553 8 0 0.0 0.0 0.00 0.91 0.00 96 1023.0
20260504200054 8 0 0.0 0.0 0.00 0.91 0.00 97 1022.9
20260504194601 8 0 0.0 0.0 0.00 0.91 0.00 96 1022.9
20260504193053 8 0 0.0 0.0 0.00 0.91 0.00 96 1022.7
20260504191555 8 0 0.0 0.0 0.00 0.94 0.00 96 1022.6
20260504190127 8 0 0.0 0.0 0.00 0.94 0.00 96 1022.4
20260504184551 8 0 0.0 0.0 0.00 0.94 0.00 96 1022.1
20260504183054 8 0 0.0 0.0 0.00 0.94 0.00 96 1022.0
20260504181554 9 0 0.0 0.0 0.00 0.94 0.00 96 1022.1
20260504180054 9 0 0.0 0.0 0.00 0.94 0.00 96 1022.2
20260504174600 9 0 0.0 0.0 0.00 0.94 0.00 96 1022.2
20260504173057 9 0 0.0 0.0 0.00 0.94 0.00 96 1022.0
20260504171553 9 0 0.0 0.0 0.00 0.94 0.00 96 1022.3
20260504081601 10 0 0.0 0.0 0.08 1.40 1.22 93 1018.8
20260504060118 12 0 0.0 0.0 0.00 1.17 0.91 90 1017.4
20260504050115 12 0 0.0 0.0 0.25 1.30 0.91 87 1016.9
20260504044554 13 0 0.0 0.0 0.00 1.02 0.64 87 1016.6
20260504043107 13 0 0.0 0.0 0.00 1.02 0.64 83 1016.4
20260504041554 13 0 0.0 0.0 0.00 1.04 0.64 84 1016.3
20260504040108 13 0 0.0 0.0 0.00 1.04 0.64 84 1016.3
20260504034601 13 0 0.0 0.0 0.00 1.04 0.64 84 1016.3
20260504033101 14 0 0.0 0.0 0.00 1.04 0.64 82 1016.3
20260504031604 14 0 0.0 0.0 0.00 1.12 0.64 87 1016.2
20260504030052 14 0 0.0 0.0 0.00 1.12 0.64 85 1016.4
20260504024553 14 0 0.0 0.0 0.00 1.12 0.64 87 1016.4
20260504023053 14 0 0.0 0.0 0.00 1.12 0.64 89 1016.3
20260504021558 13 0 0.0 0.0 0.00 1.14 0.64 88 1016.5
20260504020053 13 0 0.0 0.0 0.00 1.14 0.64 91 1016.3
20260504014600 13 0 0.0 0.0 0.00 1.14 0.64 92 1016.1
20260504013103 13 0 0.0 0.0 0.00 1.14 0.64 95 1016.0
20260504011556 12 0 0.0 0.0 0.00 1.17 0.64 96 1016.1
20260504010115 12 0 0.0 0.0 0.00 1.17 0.64 96 1015.9
20260504004603 12 0 0.0 0.0 0.00 1.17 0.64 97 1015.8
20260504003059 12 0 0.0 0.0 0.00 1.17 0.64 96 1015.7
20260504001601 11 0 0.0 0.0 0.00 1.17 0.64 96 1015.5
20260504000101 11 0 0.0 0.0 0.03 1.17 0.64 97 1015.4
20260503234554 11 0 0.0 0.0 0.03 1.17 0.64 97 1015.1
20260503233101 11 0 0.0 0.0 0.03 1.17 0.64 97 1015.0
20260503231554 11 0 0.0 0.0 0.00 1.14 0.64 97 1014.8
20260503230055 11 0 0.0 0.0 0.00 1.12 0.61 97 1014.5
20260503224553 11 0 0.0 0.0 0.00 1.12 0.61 97 1014.1
20260503223056 11 0 0.0 0.0 0.00 1.12 0.61 97 1013.9
20260503221559 11 0 0.0 0.0 0.05 1.14 0.61 97 1013.7
20260503220104 11 0 0.0 0.0 0.15 1.12 0.58 97 1013.6
20260503214554 11 0 0.0 0.0 0.15 1.12 0.58 97 1013.3
20260503213050 11 0 0.0 0.0 0.20 1.12 0.58 97 1013.1
20260503211553 11 0 0.0 0.0 0.18 1.22 0.56 97 1012.7